FENGYUN 1C DEB, 33603

Orbit data source: Space-Track

FENGYUN 1C DEB, 33603 is space debris in SSO originally from a launch on Mon, 10 May 1999 UTC launched from the Taiyaun Space Center, China (TSC). Fengyun 1C debris stems from the Chinese weather satellite Fengyun-1C, which was intentionally destroyed by a Chinese anti-satellite missile in 2007. This event dramatically increased the amount of space debris, with thousands of trackable fragments posing hazards to satellites and human spaceflight. The Fengyun 1C debris cloud has become a focal point in discussions about space sustainability and the need for international regulations to prevent the creation of new debris.

Loading next visibility...
Identifier
33603, 1999-025DCL
Orbit
SSO
Country
Flag of CNCN / PRC
Related business
Manufacturer
Unknown
Mission
Spacecraft
Bus & Motor
Unknown
Mass
Unknown
Launch date (UTC)
1999-05-10 (27 years ago)
Launch vehicle
Unknown
Launch site
Taiyaun Space Center, China (TSC)
Object type
Payload
Rocket body
Debris
Shape & HBR
Unknown shape, 0.1 m
Radar Cross Section
Small (<0.1 m²)

Expand to show TLE details & history
Last TLE update: 2 days ago

TLE from 2 days ago
0 FENGYUN 1C DEB
1 33603U 99025DCL 26120.11453010  .00003525  00000-0  31220-3 0  9992
2 33603  98.8222  74.3981 0216822 354.4175   5.4620 14.80753748  9047
Epoch: 2026-04-30T02:44Z
TLE epoch observation values (Epoch: 2026-04-30T02:44:55.400Z)
Latitude
-0.00004°
Longitude
175.10149°
Altitude
478.744 km
Speed
7.708 km/s
True Right ascension
04h 57m 35s
True Declination
0° 00' 00"
Sunlit
Object was in daylight at epoch
Visualization orbit readout
Latitude
Unknown
Longitude
Unknown
Altitude
Unknown
Speed
Unknown
Apparent Right ascension
Unknown
Apparent Declination
Unknown
Sunlit
N/A
Visualization observer readout
Local Sidereal Time
01:48:34
Azimuth
Unknown
Elevation
Unknown
Doppler factor
Unknown
Orbital elements
Apogee altitude
775.85 km
Perigee altitude
472.205 km
Semi-major axis
7,002.164 km
Eccentricity
0.02168
Inclination
98.8222°
RAAN
74.3981°
Arg. of periapsis
354.4175°
True anomaly
5.70505°
Mean anomaly
5.462°
Eccentric anomaly
5.58286°
Mean motion
3.7042 °/min
Orbital period
97.19 mins
BSTAR
0.0003122
Loading maneuver chart data...
Computing Atmospheric mass density...
Loading historical data...
Loading historical data...
Loading historical data...
Loading historical data...
Loading historical data...
Loading historical data...
Loading historical data...

Documentation

Showing up to 5 results
|